Vertical_Velocity
1 -3 -4 1 9 -5 -5 5 -2 -13 -7 17 6 16 -6 -15 1 1 -10 0 0 -1 6 -2 5 -1 11 3 -8 3 6 3 -3 2 -1 -3 5 1 2 0 1 -1 2 0
9 -20 -9 -6 8 5 3 6 -10 -12 -7 8 -2 -16 -11 -4 -5 3 -2 3 -3 2 10 14 -6 4 3 9 -5 -5 0 -0 5 3 3 2 4 1 2 -1 5 -2 1 3
-0 -6 20 19 -4 4 2 2 2 5 -0 -2 4 -21 -18 -30 -13 -11 -6 -3 6 4 3 4 -9 -2 8 7 -1 5 5 0 5 4 3 0 -2 -4 -3 -4 2 -0 2 1
-3 3 -4 3 -0 11 2 8 3 1 15 -2 14 -30 -7 2 -6 -4 -19 -11 3 5 4 16 14 -9 2 7 -2 -1 0 1 6 6 0 3 6 5 11 4 3 0 3 1
-16 11 4 3 -6 9 -33 5 3 8 10 10 -13 26 -33 -7 -16 -8 38 21 14 -2 -4 6 15 8 -6 1 3 2 3 5 5 6 7 7 4 10 4 1 -1 1 2 2
-11 -9 9 3 -6 -8 3 9 5 7 3 8 -2 18 -51 5 10 43 -4 0 -4 -6 -0 2 -6 20 -0 2 8 0 -2 0 -1 3 2 1 10 6 3 -2 2 5 3 1
13 22 23 4 6 -6 7 7 0 7 12 -17 10 27 -48 33 9 3 5 2 -5 -3 -3 -0 1 2 7 -7 4 1 1 -2 -4 5 5 1 2 6 2 3 1 3 4 1
0 13 -6 -6 2 -2 3 -1 3 0 3 -9 3 -1 14 6 3 10 1 -0 -1 -2 0 -1 4 6 6 5 -3 0 0 5 -3 -1 1 3 6 6 1 -1 4 1 0 2
-1 7 -8 -5 -6 -1 8 22 15 15 -9 12 -9 -15 -18 10 14 -5 -4 2 7 3 -1 0 4 2 7 3 0 1 3 4 1 2 2 5 1 3 3 1 3 5 -4 -1
-6 -6 6 5 -12 -5 -2 -5 -3 13 4 -0 -11 -5 3 36 -8 15 5 2 4 3 2 -1 -0 2 2 3 3 3 1 1 4 -2 -0 0 0 5 -3 -1 6 8 7 -6
-2 1 2 1 13 2 8 -0 -2 -4 1 5 1 8 4 -2 -8 10 5 7 4 2 5 3 -1 -1 0 3 2 2 -1 1 -1 0 -5 7 1 4 -0 3 5 5 -1 1
27 -0 -1 -7 22 -7 0 11 -4 1 5 0 -2 1 -9 -4 -4 -7 -10 -2 2 -2 2 5 2 -2 8 8 2 4 3 -3 -4 -2 -5 -2 1 2 2 -4 6 4 3 -0
30 2 -2 -9 7 14 13 -8 -7 -3 1 -6 5 -9 9 0 10 -12 -12 -8 -2 -6 -5 -5 6 4 1 0 1 1 0 2 1 2 -1 -2 -1 -4 4 1 -2 3 -2 8
-10 -6 5 -3 -8 14 14 16 22 17 1 -6 -11 -15 -12 -3 -3 9 7 0 -9 -5 -13 -8 -4 -7 -1 -7 -4 1 -2 1 2 2 3 2 -0 -3 -3 2 1 -3 4 6
-4 -5 -0 -12 -6 6 0 3 -7 7 -5 24 -25 -11 -8 -11 -12 -0 2 8 2 -1 -1 -4 -6 -2 -2 -3 -1 2 3 -3 -0 1 -3 0 3 1 -3 2 -0 10 -2 6
1 -10 6 -15 -11 -9 -9 -6 1 -5 -14 -2 -1 -12 -8 5 11 3 -5 -2 2 -1 8 -0 -9 1 6 6 1 7 -1 3 -2 3 -0 -1 2 1 -1 -4 -1 4 11 8
14 7 2 -15 4 10 -2 -24 -14 -11 -6 5 10 -11 -10 -0 -0 6 -0 -5 -1 -0 -12 -9 2 -4 -5 2 -8 -7 -5 -5 2 3 1 1 -5 1 2 3 1 -3 -1 6
-3 4 13 -10 4 10 -47 -11 -6 12 3 -1 -7 -13 -7 13 9 3 6 45 -30 1 -11 8 -1 -10 -6 -1 3 -2 4 2 -2 8 3 3 -2 1 1 -1 4 4 2 6
0 3 -7 13 1 -28 -27 -29 3 20 -32 18 -22 21 -10 -17 1 -17 18 -26 5 -1 -16 -3 0 -0 -6 -0 -5 -5 3 6 -2 1 3 2 -3 7 -2 0 5 8 5 8
14 9 33 9 14 1 -34 3 15 27 -29 -5 2 -3 -1 34 10 -5 47 -5 3 15 5 -1 12 -14 -3 -2 -6 -3 0 -2 -0 -4 1 5 -2 -2 -3 -3 0 6 18 19
11 6 -4 -3 -0 -22 -25 -2 1 32 -85 5 10 -9 -7 1 5 -8 -9 -21 -10 -3 -16 -4 -4 -11 1 -9 -5 0 4 2 1 8 7 4 3 9 5 13 12 15 7 9
15 13 -2 7 15 -29 30 1 62 11 -6 -13 9 16 27 -2 -13 -15 8 -2 6 -0 -8 1 7 -7 2 -2 -4 -3 -3 -5 -8 8 -1 -2 4 8 5 -1 8 2 4 4
-2 16 -3 26 -23 1 -9 -22 -14 0 2 -18 -8 -14 -18 -2 -12 -12 8 -11 8 -8 2 16 -10 -2 -2 -0 3 3 -0 2 2 7 2 2 1 9 2 -5 9 -5 3 9
-8 14 22 34 -22 -17 -9 2 8 -1 1 9 11 -2 -7 -6 -20 -7 4 -2 7 -4 0 3 -5 3 -7 -5 2 -3 -2 5 -1 6 -3 8 -3 3 1 1 -4 3 2 6
1 7 -5 -17 -17 10 -11 -12 1 -0 0 -8 -10 -8 -13 2 3 -12 -4 0 0 -1 2 0 0 1 -4 2 2 -4 -2 -1 4 2 -0 -2 1 -6 -1 -1 5 1 9 2
5 -17 6 -26 -4 3 -9 -6 -1 0 -6 1 -2 -9 -14 -7 -4 4 -6 4 0 0 0 -2 2 -1 -6 -1 2 -1 1 1 3 0 -0 -0 -1 1 5 1 2 -4 1 -1
Height
3083 3081 3080 3078 3077 3075 3075 3072 3068 3067 3068 3067 3064 3062 3062 3063 3062 3062 3062 3062 3062 3064 3066 3063 3063 3063 3065 3064 3066 3070 3075 3078 3079 3082 3084 3087 3090 3092 3094 3096 3098 3099 3101 3102
3075 3063 3074 3076 3075 3071 3068 3066 3062 3062 3064 3063 3059 3054 3055 3054 3053 3053 3054 3054 3055 3057 3059 3059 3054 3056 3058 3058 3060 3063 3067 3069 3072 3075 3078 3080 3082 3085 3087 3088 3091 3092 3094 3095
3063 3059 3066 3068 3067 3068 3061 3060 3061 3058 3058 3055 3054 3042 3045 3045 3042 3042 3044 3046 3048 3049 3051 3053 3047 3047 3050 3051 3052 3055 3058 3061 3064 3066 3069 3072 3074 3076 3078 3080 3083 3084 3086 3088
3055 3057 3057 3060 3059 3063 3054 3058 3056 3055 3054 3046 3050 3028 3033 3035 3034 3035 3037 3037 3039 3042 3043 3045 3044 3038 3040 3043 3042 3047 3050 3052 3055 3057 3060 3063 3066 3068 3071 3073 3075 3077 3079 3080
3051 3054 3053 3052 3050 3056 3045 3054 3051 3050 3048 3045 3036 3038 3020 3029 3027 3029 3030 3027 3027 3027 3028 3032 3037 3035 3031 3034 3035 3038 3040 3043 3046 3049 3052 3055 3059 3061 3063 3064 3066 3068 3070 3072
3040 3046 3049 3047 3045 3044 3047 3045 3044 3045 3045 3040 3018 3035 3006 3018 3017 3019 3015 3017 3018 3019 3020 3022 3023 3029 3024 3025 3028 3029 3031 3033 3037 3041 3043 3046 3049 3051 3053 3056 3056 3060 3062 3064
3039 3039 3040 3041 3041 3043 3042 3042 3039 3035 3034 3020 3021 3020 3014 3011 3010 3008 3009 3010 3012 3013 3014 3015 3018 3020 3020 3017 3020 3022 3024 3025 3027 3031 3034 3037 3039 3042 3044 3048 3048 3051 3053 3055
3039 3033 3032 3032 3035 3037 3038 3038 3034 3022 3015 3013 3013 3007 3011 3009 3008 3003 3004 3007 3008 3009 3009 3010 3010 3011 3012 3012 3013 3015 3016 3018 3017 3021 3024 3026 3029 3032 3033 3037 3039 3042 3044 3045
3034 3032 3028 3030 3030 3032 3034 3032 3033 3026 3021 3021 3014 3014 3010 3010 3007 3004 3008 3010 3007 3005 3006 3006 3006 3006 3007 3007 3007 3007 3009 3010 3010 3011 3013 3016 3018 3022 3024 3026 3029 3031 3033 3034
3030 3030 3028 3028 3027 3029 3029 3029 3028 3025 3018 3009 3003 3000 2998 3002 3004 3007 3007 3007 3007 3006 3003 3002 3002 3002 3002 3002 3001 3002 3003 3004 3005 3005 3006 3007 3009 3011 3013 3015 3018 3020 3020 3022
3030 3029 3024 3023 3027 3026 3028 3027 3026 3026 3024 3017 3002 2996 2999 2996 3000 3003 3004 3005 3003 3002 3001 2999 2998 2997 2997 2997 2996 2996 2997 2998 2999 2998 2999 3001 3000 3001 3003 3004 3008 3009 3009 3012
3027 3025 3022 3020 3021 3021 3024 3022 3021 3023 3021 3020 3020 3004 2997 2996 2997 3000 3000 3000 3000 2997 2996 2995 2994 2992 2992 2991 2990 2991 2991 2992 2992 2993 2992 2992 2992 2993 2993 2993 2998 2999 3001 3004
3024 3020 3016 3013 3016 3014 3017 3016 3017 3018 3017 3015 3013 3004 2997 2997 2992 2994 2995 2998 2995 2992 2990 2991 2990 2988 2986 2985 2985 2985 2984 2984 2985 2985 2985 2984 2985 2983 2985 2984 2986 2988 2990 2994
3021 3018 3016 3013 3012 3010 3011 3012 3013 3012 3011 3007 3004 2996 2997 2996 2993 2992 2990 2987 2986 2986 2985 2986 2984 2982 2980 2979 2978 2978 2977 2977 2977 2976 2976 2976 2976 2975 2975 2976 2978 2978 2981 2984
3016 3013 3012 3006 3007 3006 3003 3002 3004 3004 3003 3001 2993 2996 2991 2991 2988 2984 2984 2983 2979 2978 2979 2979 2979 2977 2975 2975 2973 2969 2969 2969 2969 2968 2967 2967 2966 2966 2966 2966 2966 2971 2972 2974
3009 3003 3003 2999 3000 2999 2997 2997 2996 2996 2995 2991 2989 2986 2985 2986 2983 2979 2978 2976 2974 2972 2971 2972 2972 2972 2969 2967 2965 2964 2962 2963 2960 2960 2960 2960 2960 2959 2957 2957 2958 2960 2963 2965
3004 3000 2998 2994 2995 2994 2992 2989 2990 2988 2987 2987 2983 2981 2977 2976 2976 2974 2972 2971 2969 2967 2965 2964 2963 2961 2960 2959 2957 2956 2955 2952 2952 2951 2951 2950 2949 2950 2951 2951 2950 2950 2954 2955
2999 2997 2995 2990 2991 2985 2983 2985 2982 2980 2979 2978 2976 2974 2972 2971 2970 2968 2968 2965 2960 2956 2955 2957 2956 2955 2954 2951 2950 2949 2948 2946 2943 2942 2941 2941 2939 2940 2943 2942 2941 2943 2943 2944
2993 2991 2988 2987 2983 2978 2978 2977 2977 2974 2970 2971 2968 2967 2965 2963 2962 2961 2962 2954 2955 2953 2949 2951 2948 2947 2945 2945 2942 2941 2939 2939 2937 2934 2933 2931 2929 2930 2932 2932 2933 2934 2935 2936
2985 2984 2984 2981 2975 2970 2969 2970 2971 2968 2963 2962 2964 2962 2959 2957 2951 2951 2950 2945 2946 2946 2944 2941 2941 2939 2939 2937 2935 2934 2931 2929 2929 2926 2923 2923 2920 2923 2924 2924 2925 2925 2926 2930
2979 2978 2976 2972 2968 2965 2961 2965 2965 2962 2958 2957 2956 2955 2952 2948 2947 2942 2942 2939 2940 2939 2938 2935 2934 2932 2931 2929 2927 2924 2922 2920 2917 2913 2913 2914 2914 2914 2913 2913 2914 2916 2920 2924
2973 2971 2968 2968 2963 2956 2958 2957 2958 2954 2950 2947 2947 2945 2944 2940 2937 2936 2937 2937 2935 2934 2933 2931 2928 2926 2923 2920 2917 2915 2912 2909 2904 2902 2902 2905 2905 2903 2902 2903 2905 2909 2915 2919
2965 2965 2962 2961 2952 2950 2951 2947 2946 2945 2942 2939 2938 2936 2934 2932 2931 2930 2929 2929 2927 2927 2927 2924 2920 2916 2913 2911 2908 2906 2903 2898 2890 2890 2893 2893 2894 2893 2894 2895 2900 2906 2911 2916
2957 2957 2952 2949 2944 2943 2941 2940 2937 2935 2932 2928 2927 2924 2924 2922 2923 2922 2922 2921 2921 2920 2918 2916 2912 2908 2904 2903 2902 2898 2896 2891 2886 2883 2884 2885 2887 2888 2891 2894 2899 2906 2912 2916
2950 2949 2944 2939 2936 2934 2931 2930 2928 2925 2922 2918 2915 2913 2913 2913 2912 2912 2914 2913 2913 2911 2908 2905 2903 2900 2896 2896 2894 2893 2891 2888 2884 2884 2885 2885 2885 2888 2890 2894 2901 2907 2910 2914
2942 2939 2936 2928 2929 2926 2922 2921 2919 2915 2912 2910 2907 2905 2905 2905 2905 2904 2906 2905 2903 2902 2900 2898 2896 2893 2890 2890 2889 2888 2887 2886 2884 2884 2884 2884 2885 2888 2892 2897 2901 2905 2909 2912